Regional Weather Roundup
Issued by NWS

Home | Current Version | Previous Version | Text Only | Print | Product List | Glossary On
Versions: 1 2 3 4 5 6 7 8 9 10 11 12 13 14 15 16 17 18 19 20 21 22 23 24 25 26 27 28 29 30 31 32 33 34 35 36 37 38 39 40 41 42 43 44 45 46 47 48 49 50
000
ASUS43 KDTX 060610
RWRMI
MICHIGAN HOURLY REGIONAL WEATHER ROUNDUP
NATIONAL WEATHER SERVICE DETROIT/PONTIAC MI
ISSUED BY NATIONAL WEATHER SERVICE GRAND RAPIDS MI
100 AM EST TUE DEC 06 2016

NOTE: "FAIR" INDICATES FEW OR NO CLOUDS BELOW 12,000 FEET WITH NO
SIGNIFICANT WEATHER AND/OR OBSTRUCTION TO VISIBILITY.

MIZ047>049-052>055-059>063-066>070-074>076-081>083-060700-
SOUTHEAST LOWER MICHIGAN

CITY           SKY/WX    TMP DP  RH WIND       PRES   REMARKS
ADRIAN         CLEAR     28  27  96 SE3       30.02F
6HR MIN TEMP:  26; 6HR MAX TEMP:  30;

ALMA           PTCLDY    30  28  94 E6        30.02F FOG     WCI  24
ANN ARBOR      CLEAR     25  24  96 NE5       30.02F FOG     WCI  19
BAD AXE        PTCLDY    29  28  96 CALM      30.06S
DETROIT CITY   CLEAR     28  27  96 CALM      30.05F
6HR MIN TEMP:  28; 6HR MAX TEMP:  35;

DETROIT        PTCLDY    30  28  92 NE5       30.04F FOG     WCI  25
6HR MIN TEMP:  30; 6HR MAX TEMP:  34;

FLINT          CLEAR     25  23  92 SE7       30.04F WCI  17
6HR MIN TEMP:  24; 6HR MAX TEMP:  34;

GROSSE ILE     CLEAR     32  29  90 E5        30.03F WCI  27
6HR MIN TEMP:  28; 6HR MAX TEMP:  35;

HILLSDALE      CLOUDY    30  28  93 E7        29.96F FOG     WCI  23
HOWELL         CLOUDY    27  26  94 E3        30.02S FOG

CITY           SKY/WX    TMP DP  RH WIND       PRES   REMARKS
JACKSON        FLURRIES  27  25  92 E5        29.99F WCI  22
6HR MIN TEMP:  25; 6HR MAX TEMP:  32; 6HR PCP: TRACE;

LANSING        CLEAR     25  21  85 E7        30.01F WCI  17
6HR MIN TEMP:  24; 6HR MAX TEMP:  33;

MASON          CLEAR     29  28  96 CALM      30.01S
MONROE         CLEAR     26  26  99 CALM      30.02F FOG
MT. CLEMENS    PTCLDY    27  26  96 N5        30.04S WCI  21
6HR MIN TEMP:  26; 6HR MAX TEMP:  35;

PONTIAC        CLOUDY    25  23  92 E5        30.02F FOG     WCI  19
6HR MIN TEMP:  24; 6HR MAX TEMP:  34;

PORT HOPE        N/A     30  29  96 CALM      30.03F
6HR MIN TEMP:  29; 6HR MAX TEMP:  36;

PORT HURON     CLEAR     23  23 100 CALM      30.07S
TRI CITIES     CLOUDY    32  30  92 E3        30.04F FOG
6HR MIN TEMP:  31; 6HR MAX TEMP:  36;

YPSILANTI      PTCLDY    28  26  92 NE7       30.03F WCI  21
6HR MIN TEMP:  25; 6HR MAX TEMP:  33;

$$
MIZ043>046-050>051-056>058-064>065-071>073-077>080-060700-
SOUTHWEST LOWER MICHIGAN

CITY           SKY/WX    TMP DP  RH WIND       PRES   REMARKS
BATTLE CREEK   CLEAR     29  27  92 E5        29.98F WCI  24
6HR MIN TEMP:  28; 6HR MAX TEMP:  33;

BENTON HARBOR  CLEAR     31  28  89 E8        29.95F FOG     WCI  23
6HR MIN TEMP:  31; 6HR MAX TEMP:  33;

BIG RAPIDS     CLOUDY    33  30  90 SE6       29.97F FOG     WCI  27
6HR MIN TEMP:  33; 6HR MAX TEMP:  38;

COLDWATER      CLOUDY    29  28  94 E6        29.96F FOG     WCI  23
6HR MIN TEMP:  27; 6HR MAX TEMP:  32;

HOLLAND        CLOUDY    31  29  92 S9        29.97F WCI  23
6HR MIN TEMP:  30; 6HR MAX TEMP:  34;

GRAND RAPIDS   CLEAR     29  26  89 SE6       29.99F WCI  23
6HR MIN TEMP:  28; 6HR MAX TEMP:  34;

KALAMAZOO      CLEAR     29  26  89 CALM      29.97F FOG
6HR MIN TEMP:  29; 6HR MAX TEMP:  33;

MARSHALL       CLEAR     27  26  97 E3        29.98F FOG
6HR MIN TEMP:  25; 6HR MAX TEMP:  32;

MOUNT PLEASANT PTCLDY    32  30  92 SE3       30.01F
6HR MIN TEMP:  32; 6HR MAX TEMP:  36;

MUSKEGON       CLOUDY    32  29  88 E10       29.96F WCI  24
6HR MIN TEMP:  31; 6HR MAX TEMP:  37;

STURGIS        PTCLDY    29  27  92 E7        29.95F FOG     WCI  22
6HR MIN TEMP:  28; 6HR MAX TEMP:  32;

$$
MIZ016>042-060700-
NORTHERN LOWER MICHIGAN

CITY           SKY/WX    TMP DP  RH WIND       PRES   REMARKS
ALPENA         CLEAR     28  27  96 S3        30.02F
6HR MIN TEMP:  28; 6HR MAX TEMP:  36;

BEAVER ISLAND  MOCLDY    40  37  89 S5        29.95F
6HR MIN TEMP:  39; 6HR MAX TEMP:  42;

BELLAIRE       CLOUDY    30  29  99 CALM      29.98F FOG
6HR MIN TEMP:  28; 6HR MAX TEMP:  33;

CADILLAC       CLOUDY    32  31  96 S3        29.94F FOG
CHARLEVOIX     CLOUDY    33  32  94 SE3       30.00F
GAYLORD        PTCLDY    30  27  88 SE7       29.96F WCI  23
6HR MIN TEMP:  27; 6HR MAX TEMP:  33;

HOUGHTON LAKE  CLOUDY    30  28  92 E5        29.98F WCI  25
6HR MIN TEMP:  27; 6HR MAX TEMP:  36;

MANISTEE       CLOUDY    35  32  88 SE6       29.94F WCI  30
OSCODA         PTCLDY    27  25  94 CALM      30.02F FOG
6HR MIN TEMP:  24; 6HR MAX TEMP:  32;

PELLSTON       MOCLDY    32  29  88 SE5       29.98F WCI  27
6HR MIN TEMP:  32; 6HR MAX TEMP:  39;

TRAVERSE CITY  CLOUDY    35  31  85 CALM      29.96F
6HR MIN TEMP:  32; 6HR MAX TEMP:  36;

LUDINGTON      CLOUDY    34  32  92 SE6       29.94F WCI  29
6HR MIN TEMP:  34; 6HR MAX TEMP:  40;

$$
MIZ007>008-015-060700-
EASTERN UPPER MICHIGAN

CITY           SKY/WX    TMP DP  RH WIND       PRES   REMARKS
KINROSS        PTCLDY    32  29  88 SE7       29.97F WCI  26
6HR MIN TEMP:  28; 6HR MAX TEMP:  32;

MACKINAC ISLAN CLOUDY    37  32  84 S8        29.97F WCI  30
6HR MIN TEMP:  37; 6HR MAX TEMP:  39;

NEWBERRY       PTCLDY    29  29  97 CALM      29.94S FOG
6HR MIN TEMP:  28; 6HR MAX TEMP:  34;

S. S. MARIE    MOCLDY    34  29  82 E6        29.96F WCI  29
6HR MIN TEMP:  30; 6HR MAX TEMP:  34;

$$
MIZ004>006-011>014-085-060700-
CENTRAL UPPER MICHIGAN

CITY           SKY/WX    TMP DP  RH WIND       PRES   REMARKS
MANISTIQUE     CLOUDY    38  36  92 SW6       29.95S WCI  34
6HR MIN TEMP:  35; 6HR MAX TEMP:  38;

ESCANABA       CLOUDY    37  36  93 SE12      29.91F WCI  30
6HR MIN TEMP:  33; 6HR MAX TEMP:  38; 6HR PCP: TRACE;

MENOMINEE      CLOUDY    37  35  92 S6        29.89F FOG     WCI  32
6HR MIN TEMP:  34; 6HR MAX TEMP:  37;

SAWYER-GWINN   CLOUDY    32  31  96 SE6       29.85F WCI  27
6HR MIN TEMP:  31; 6HR MAX TEMP:  32;

$$
MIZ001>003-009>011-084-060700-
WESTERN UPPER MICHIGAN

CITY           SKY/WX    TMP DP  RH WIND       PRES   REMARKS
IRON MOUNTAIN  CLOUDY    32  30  92 SE9       29.85F FOG     WCI  24
6HR MIN TEMP:  32; 6HR MAX TEMP:  33; 6HR PCP: TRACE;

HOUGHTON       CLOUDY    36  32  85 E9        29.79F WCI  29
6HR MIN TEMP:  30; 6HR MAX TEMP:  36; 6HR PCP:  0.01;

COPPER HARBOR    N/A     36  35  96 VRB3      29.84F
6HR MIN TEMP:  31; 6HR MAX TEMP:  37;

IRONWOOD       MOCLDY    37  30  75 S10       29.72F WCI  30
6HR MIN TEMP:  35; 6HR MAX TEMP:  38; 6HR PCP: TRACE;

$$

ABBREVIATIONS USED IN REMARKS
   TC - TEMPERATURE IN CELSIUS
  WCI - WIND CHILL INDEX
   HX - HEAT INDEX
  VSB - VISIBILITY




USA.gov is the U.S. government's official web portal to all federal, state and local government web resources and services.